TimePST,TemperatureF,Dew PointF,Humidity,Sea Level PressureIn,VisibilityMPH,Wind Direction,Wind SpeedMPH,Gust SpeedMPH,PrecipitationIn,Events,Conditions,WindDirDegrees,DateUTC
12:25 AM,37.4,37.4,100,30.19,2.5,Calm,Calm,-,N/A,,Overcast,0,2013-01-06 08:25:00
12:48 AM,37.4,37.4,100,30.18,3.0,Calm,Calm,-,N/A,,Overcast,0,2013-01-06 08:48:00
12:53 AM,37.9,37.9,100,30.19,3.0,Calm,Calm,-,N/A,,Overcast,0,2013-01-06 08:53:00
1:36 AM,39.2,37.4,93,30.18,2.5,Calm,Calm,-,N/A,,Overcast,0,2013-01-06 09:36:00
2:25 AM,39.2,37.4,93,30.20,3.0,Calm,Calm,-,N/A,,Overcast,0,2013-01-06 10:25:00
2:46 AM,39.2,37.4,93,30.20,4.0,Calm,Calm,-,N/A,,Overcast,0,2013-01-06 10:46:00
2:53 AM,39.0,39.0,100,30.22,5.0,Calm,Calm,-,N/A,,Overcast,0,2013-01-06 10:53:00
3:53 AM,39.0,37.9,96,30.20,3.0,Calm,Calm,-,N/A,,Overcast,0,2013-01-06 11:53:00
4:09 AM,39.2,39.2,100,30.19,5.0,Calm,Calm,-,N/A,,Overcast,0,2013-01-06 12:09:00
4:30 AM,39.2,39.2,100,30.20,5.0,Calm,Calm,-,N/A,,Overcast,0,2013-01-06 12:30:00
4:44 AM,39.2,39.2,100,30.20,5.0,Calm,Calm,-,N/A,,Overcast,0,2013-01-06 12:44:00
4:53 AM,39.0,39.0,100,30.21,4.0,Calm,Calm,-,N/A,,Overcast,0,2013-01-06 12:53:00
5:53 AM,39.0,37.9,96,30.20,5.0,SSE,6.9,-,N/A,,Overcast,150,2013-01-06 13:53:00
6:04 AM,39.2,37.4,93,30.19,4.0,SSE,5.8,-,N/A,,Overcast,160,2013-01-06 14:04:00
6:53 AM,39.0,37.9,96,30.24,7.0,Calm,Calm,-,N/A,,Overcast,0,2013-01-06 14:53:00
7:53 AM,39.0,39.0,100,30.25,4.0,Calm,Calm,-,N/A,,Overcast,0,2013-01-06 15:53:00
8:53 AM,39.9,39.0,97,30.25,5.0,Calm,Calm,-,N/A,,Overcast,0,2013-01-06 16:53:00
9:50 AM,41.0,39.2,93,30.25,10.0,Calm,Calm,-,N/A,,Overcast,0,2013-01-06 17:50:00
9:53 AM,41.0,39.0,93,30.27,10.0,SSE,3.5,-,N/A,,Overcast,150,2013-01-06 17:53:00
10:53 AM,43.0,39.9,89,30.27,10.0,Calm,Calm,-,N/A,,Overcast,0,2013-01-06 18:53:00
11:16 AM,44.6,39.2,81,30.25,10.0,Calm,Calm,-,N/A,,Scattered Clouds,0,2013-01-06 19:16:00
11:53 AM,46.0,39.9,79,30.23,10.0,Calm,Calm,-,N/A,,Clear,0,2013-01-06 19:53:00
12:53 PM,48.9,41.0,74,30.20,10.0,South,3.5,-,N/A,,Clear,190,2013-01-06 20:53:00
1:53 PM,51.1,37.9,61,30.20,10.0,Variable,3.5,-,N/A,,Clear,0,2013-01-06 21:53:00
2:53 PM,51.1,37.9,61,30.18,10.0,Calm,Calm,-,N/A,,Clear,0,2013-01-06 22:53:00
3:53 PM,51.1,37.9,61,30.19,10.0,Calm,Calm,-,N/A,,Clear,0,2013-01-06 23:53:00
4:53 PM,50.0,39.0,66,30.18,10.0,Calm,Calm,-,N/A,,Mostly Cloudy,0,2013-01-07 00:53:00
5:53 PM,46.9,39.0,74,30.21,10.0,Calm,Calm,-,N/A,,Overcast,0,2013-01-07 01:53:00
6:53 PM,46.9,39.9,77,30.19,10.0,Calm,Calm,-,N/A,,Overcast,0,2013-01-07 02:53:00
7:53 PM,48.0,39.0,71,30.19,10.0,Calm,Calm,-,N/A,,Overcast,0,2013-01-07 03:53:00
8:53 PM,46.9,39.0,74,30.20,10.0,Calm,Calm,-,N/A,,Overcast,0,2013-01-07 04:53:00
9:53 PM,46.9,37.9,71,30.19,10.0,Calm,Calm,-,0.00,,Overcast,0,2013-01-07 05:53:00
10:53 PM,45.0,41.0,86,30.19,10.0,SSE,3.5,-,0.00,,Overcast,150,2013-01-07 06:53:00
11:53 PM,45.0,39.9,82,30.19,10.0,Calm,Calm,-,0.00,,Overcast,0,2013-01-07 07:53:00